Location: Unspecified
(0.0000°N, 0.0000°E)
Time: 05:16:14
(UTC+00:00)

Safir 2 - Pass Details

Date: 23 May 2026
Orbit: 804 x 808 km, 99.0° (Epoch: 11 June)

Event Time Altitude Azimuth Distance (km) Brightness Sun altitude
Rises 04:16:04 0° 18° (NNE) 3,301 11.9 -23.5°
Reaches altitude 10° 04:18:24 10° 21° (NNE) 2,373 11.1 -22.9°
Maximum altitude 04:23:36 65° 103° (ESE) 879 8.4 -21.7°
Enters shadow 04:28:33 11° 184° (S) 2,284 10.2 -20.6°
